Weather History for Mankato, MN

Change the Weather History Date:

Thursday, May 9, 2013

  Actual Average Record
Temperature  
Mean Temperature 54 °F -  
Max Temperature 62 °F 63 °F 91 °F (2004)
Min Temperature 44 °F 44 °F 35 °F (1999)
Degree Days  
Heating Degree Days 11    
Growing Degree Days 4 (Base 50)    
Moisture  
Dew Point 50 °F    
Average Humidity 82    
Maximum Humidity 94    
Minimum Humidity 62    
Precipitation  
Precipitation 0.02 in - - ()
Sea Level Pressure  
Sea Level Pressure 29.99 in    
Wind  
Wind Speed 13 mph (NE)    
Max Wind Speed 26 mph    
Max Gust Speed 30 mph    
Visibility 8 miles    
Events      
Averages and records for this station are not official NWS values.
T = Trace of Precipitation, MM = Missing Value Source: NWS Daily Summary

Daily Weather History Graph

Daily Weather History Graph

Search for Another Location

Airport:

Trip Planner

Search our weather history database for the weather conditions in past years. The results will help you decide how hot, cold, wet, or windy it might be!

Date:

Astronomy

May. 09, 2013 Rise Set
Actual Time 5:55 AM CDT 8:29 PM CDT
Civil Twilight 5:22 AM CDT 9:02 PM CDT
Nautical Twilight 4:41 AM CDT 9:43 PM CDT
Astronomical Twilight 3:55 AM CDT 10:30 PM CDT
Moon 5:41 AM CDT (5/9) 8:24 PM CDT (5/9)
Length of Visible Light 15h 39m
Length of Day
14h 33m
Waning Crescent, 0% of the Moon is Illuminated
May 9
Waning Crescent
May 9
New
May 17
First Quarter
May 24
Full
May 31
Last Quarter

Hourly Weather History & Observations

Time (CDT) Temp. Windchill Dew Point Humidity Pressure Visibility Wind Dir Wind Speed Gust Speed Precip Events Conditions
12:15 AM 59.0 °F - 53.6 °F 82% 29.96 in 10.0 mi ENE 11.5 mph - N/A   Overcast
12:35 AM 59.0 °F - 53.6 °F 82% 29.97 in 10.0 mi ENE 11.5 mph - N/A   Overcast
12:55 AM 59.0 °F - 53.6 °F 82% 29.96 in 10.0 mi East 12.7 mph - N/A   Overcast
1:15 AM 59.0 °F - 53.6 °F 82% 29.96 in 10.0 mi East 10.4 mph - N/A   Overcast
1:35 AM 57.2 °F - 53.6 °F 88% 29.97 in 10.0 mi East 9.2 mph - N/A   Overcast
1:55 AM 59.0 °F - 53.6 °F 82% 29.96 in 10.0 mi East 9.2 mph - N/A   Overcast
2:15 AM 57.2 °F - 53.6 °F 88% 29.96 in 10.0 mi ESE 6.9 mph - N/A   Overcast
2:35 AM 57.2 °F - 53.6 °F 88% 29.96 in 8.0 mi East 5.8 mph - N/A   Overcast
2:55 AM 57.2 °F - 53.6 °F 88% 29.97 in 7.0 mi East 8.1 mph - N/A   Overcast
3:15 AM 57.2 °F - 53.6 °F 88% 29.97 in 8.0 mi East 5.8 mph - N/A   Overcast
3:35 AM 57.2 °F - 53.6 °F 88% 29.96 in 5.0 mi East 4.6 mph - 0.01 in   Overcast
3:55 AM 57.2 °F - 53.6 °F 88% 29.96 in 4.0 mi East 4.6 mph - 0.01 in   Overcast
4:15 AM 57.2 °F - 53.6 °F 88% 29.96 in 4.0 mi NE 6.9 mph - N/A   Overcast
4:35 AM 57.2 °F - 53.6 °F 88% 29.95 in 3.0 mi ENE 8.1 mph - N/A   Overcast
4:55 AM 57.2 °F - 53.6 °F 88% 29.95 in 3.0 mi ENE 5.8 mph - 0.01 in   Overcast
5:15 AM 57.2 °F - 53.6 °F 88% 29.95 in 3.0 mi ENE 6.9 mph - N/A   Overcast
5:35 AM 57.2 °F - 53.6 °F 88% 29.95 in 3.0 mi ENE 6.9 mph - N/A   Overcast
5:55 AM 57.2 °F - 53.6 °F 88% 29.95 in 3.0 mi ENE 6.9 mph - N/A   Overcast
6:15 AM 57.2 °F - 53.6 °F 88% 29.95 in 2.5 mi NNE 6.9 mph - N/A   Overcast
6:35 AM 55.4 °F - 53.6 °F 94% 29.95 in 2.0 mi NNE 5.8 mph - N/A   Overcast
6:55 AM 55.4 °F - 53.6 °F 94% 29.96 in 2.5 mi NNE 6.9 mph - N/A   Overcast
7:15 AM 55.4 °F - 53.6 °F 94% 29.96 in 3.0 mi NE 6.9 mph - N/A   Mostly Cloudy
7:35 AM 55.4 °F - 53.6 °F 94% 29.96 in 4.0 mi NE 9.2 mph - N/A   Overcast
7:55 AM 57.2 °F - 53.6 °F 88% 29.97 in 6.0 mi NE 9.2 mph - N/A   Overcast
8:15 AM 55.4 °F - 53.6 °F 94% 29.97 in 8.0 mi NE 10.4 mph - N/A   Overcast
8:35 AM 57.2 °F - 53.6 °F 88% 29.97 in 10.0 mi NE 10.4 mph - N/A   Overcast
8:55 AM 57.2 °F - 53.6 °F 88% 29.97 in 10.0 mi NE 11.5 mph - N/A   Overcast
9:15 AM 57.2 °F - 51.8 °F 82% 29.97 in 10.0 mi NE 12.7 mph - N/A   Overcast
9:35 AM 57.2 °F - 51.8 °F 82% 29.97 in 10.0 mi NE 13.8 mph 18.4 mph N/A   Overcast
9:55 AM 57.2 °F - 51.8 °F 82% 29.97 in 10.0 mi NE 11.5 mph - N/A   Overcast
10:35 AM 57.2 °F - 53.6 °F 88% 29.97 in 10.0 mi NE 13.8 mph - N/A   Overcast
10:55 AM 59.0 °F - 53.6 °F 82% 29.98 in 10.0 mi NE 15.0 mph - N/A   Overcast
11:15 AM 59.0 °F - 53.6 °F 82% 29.98 in 10.0 mi NE 15.0 mph - N/A   Overcast
11:35 AM 57.2 °F - 51.8 °F 82% 29.98 in 10.0 mi ENE 16.1 mph 21.9 mph N/A   Overcast
12:15 PM 57.2 °F - 53.6 °F 88% 29.99 in 10.0 mi NE 15.0 mph - N/A   Overcast
12:35 PM 59.0 °F - 51.8 °F 77% 29.98 in 10.0 mi NE 13.8 mph 21.9 mph N/A   Overcast
12:55 PM 59.0 °F - 51.8 °F 77% 29.98 in 10.0 mi NE 19.6 mph 23.0 mph N/A   Overcast
1:15 PM 60.8 °F - 51.8 °F 72% 29.98 in 10.0 mi NE 20.7 mph - N/A   Mostly Cloudy
1:35 PM 60.8 °F - 51.8 °F 72% 29.98 in 10.0 mi ENE 19.6 mph 27.6 mph N/A   Overcast
1:55 PM 60.8 °F - 51.8 °F 72% 29.98 in 10.0 mi NE 21.9 mph 28.8 mph N/A   Overcast
2:15 PM 62.6 °F - 51.8 °F 68% 29.98 in 10.0 mi NE 25.3 mph 29.9 mph N/A   Overcast
2:35 PM - - - N/A% 29.98 in 10.0 mi NNE 24.2 mph 28.8 mph N/A   Overcast
2:55 PM 59.0 °F - 51.8 °F 77% 29.98 in 10.0 mi NNE 18.4 mph 28.8 mph N/A   Overcast
3:15 PM 57.2 °F - 51.8 °F 82% 29.98 in 10.0 mi NNE 20.7 mph 25.3 mph N/A   Overcast
3:35 PM - - - N/A% 29.98 in 10.0 mi NNE 21.9 mph 26.5 mph N/A   Overcast
3:55 PM 57.2 °F - 50.0 °F 77% 29.99 in 10.0 mi NNE 19.6 mph 29.9 mph N/A   Overcast
4:15 PM 55.4 °F - 50.0 °F 82% 29.99 in 10.0 mi NNE 20.7 mph 25.3 mph N/A   Overcast
4:35 PM 55.4 °F - 48.2 °F 77% 29.99 in 10.0 mi NNE 20.7 mph 26.5 mph N/A   Overcast
4:55 PM 55.4 °F - 48.2 °F 77% 30.00 in 10.0 mi NNE 20.7 mph 28.8 mph N/A   Overcast
5:15 PM 55.4 °F - 46.4 °F 72% 30.00 in 10.0 mi NNE 23.0 mph 26.5 mph N/A   Overcast
5:35 PM 53.6 °F - 46.4 °F 77% 30.01 in 10.0 mi NE 23.0 mph 29.9 mph N/A   Overcast
5:55 PM 53.6 °F - 46.4 °F 77% 30.01 in 10.0 mi NE 18.4 mph - N/A   Overcast
6:15 PM - - - N/A% 30.01 in 10.0 mi NNE 26.5 mph 29.9 mph N/A   Overcast
6:35 PM - - - N/A% 30.01 in 10.0 mi NNE 21.9 mph 28.8 mph N/A   Overcast
6:55 PM 51.8 °F - 42.8 °F 71% 30.02 in 10.0 mi NNE 18.4 mph 28.8 mph N/A   Overcast
7:15 PM 50.0 °F - 44.6 °F 82% 30.03 in 10.0 mi North 21.9 mph - N/A   Overcast
7:35 PM 48.2 °F - 42.8 °F 82% 30.04 in 10.0 mi NNE 19.6 mph 26.5 mph N/A   Overcast
7:55 PM 48.2 °F - 42.8 °F 82% 30.04 in 10.0 mi NNE 16.1 mph 25.3 mph N/A   Overcast
8:15 PM 48.2 °F - 42.8 °F 82% 30.04 in 10.0 mi North 17.3 mph - N/A   Overcast
8:35 PM 48.2 °F - 41.0 °F 76% 30.05 in 10.0 mi NNE 18.4 mph 27.6 mph N/A   Overcast
8:55 PM 48.2 °F - 41.0 °F 76% 30.05 in 10.0 mi NNE 21.9 mph 27.6 mph N/A   Overcast
9:15 PM 48.2 °F - 39.2 °F 71% 30.06 in 10.0 mi NNE 19.6 mph 25.3 mph N/A   Overcast
9:35 PM 46.4 °F 38.7 °F 39.2 °F 76% 30.06 in 10.0 mi NE 20.7 mph 27.6 mph N/A   Overcast
9:55 PM 46.4 °F 38.7 °F 39.2 °F 76% 30.07 in 10.0 mi NE 20.7 mph 26.5 mph N/A   Overcast
10:15 PM 46.4 °F 39.2 °F 39.2 °F 76% 30.07 in 10.0 mi NNE 18.4 mph 27.6 mph N/A   Overcast
10:55 PM 46.4 °F 39.0 °F 35.6 °F 66% 30.08 in 10.0 mi NNE 19.6 mph - N/A   Overcast
11:15 PM 46.4 °F 39.0 °F 33.8 °F 62% 30.08 in 10.0 mi NNE 19.6 mph - N/A   Mostly Cloudy
11:35 PM 44.6 °F 37.2 °F 33.8 °F 66% 30.08 in 10.0 mi NNE 17.3 mph - N/A   Mostly Cloudy